Location: Bear Trap Landing
(45.2437°N, 67.7928°W)
Time: 18:16:19
(UTC+00:00)

ISS - Pass Details

Date: 09 March 2021
Orbit: 418 x 421 km, 51.6° (Epoch: 21 April)

Event Time Altitude Azimuth Distance (km) Brightness Sun altitude
Exits shadow 10:08:06 11° 290° (WNW) 1,448 -1.6 -9.0°
Maximum altitude 10:11:13 47° 216° (SW) 560 -3.4 -8.4°
Drops below altitude 10° 10:14:27 10° 141° (SE) 1,491 -0.4 -7.9°
Sets 10:16:35 0° 136° (SE) 2,352 0.8 -7.5°
